Nogales, AZ

11:17 AM MST on November 21, 2017 (GMT -0700)
Nogales International

Weather History for KOLS - November, 2012

Change the Weather History Date:

Tuesday, November 20, 2012

  Actual Average (KFHU) Record (KFHU)
Temperature  
Mean Temperature 58 °F -  
Max Temperature 73 °F 65 °F 80 °F (1996)
Min Temperature 42 °F 43 °F 29 °F (1985)
Degree Days  
Heating Degree Days 8    
Growing Degree Days 8 (Base 50)    
Moisture  
Dew Point 36 °F    
Average Humidity 49    
Maximum Humidity 76    
Minimum Humidity 23    
Precipitation  
Precipitation 0.00 in - - ()
Sea Level Pressure  
Sea Level Pressure 30.04 in    
Wind  
Wind Speed 2 mph (East)    
Max Wind Speed 6 mph    
Max Gust Speed -    
Visibility 10 miles    
Events      
Averages and records for this station are not official NWS values.
T = Trace of Precipitation, MM = Missing Value Source: NWS Daily Summary

Daily Weather History Graph

Daily Weather History Graph

Search for Another Location

Airport or City:

Trip Planner

Search our weather history database for the weather conditions in past years. The results will help you decide how hot, cold, wet, or windy it might be!

Date:

Astronomy

Nov. 20, 2012 Rise Set
Actual Time 6:55 AM MST 5:22 PM MST
Civil Twilight 6:29 AM MST 5:48 PM MST
Nautical Twilight 6:00 AM MST 6:17 PM MST
Astronomical Twilight 5:31 AM MST 6:46 PM MST
Moon 12:45 PM MST (11/20) No Moon Set
Length of Visible Light 11h 18m
Length of Day
10h 26m
First Quarter, 52% of the Moon is Illuminated
Nov 20
First Quarter
Nov 28
Full
Dec 6
Last Quarter
Dec 13
New
Dec 19
First Quarter

Hourly Weather History & Observations

Time (MST) Temp. Windchill Dew Point Humidity Pressure Visibility Wind Dir Wind Speed Gust Speed Precip Events Conditions
12:54 AM 46.0 °F 43.9 °F 36.0 °F 68% 30.10 in 10.0 mi East 4.6 mph - N/A   Clear
1:54 AM 45.0 °F - 36.0 °F 71% 30.10 in 10.0 mi Calm Calm - N/A   Clear
2:54 AM 43.0 °F 41.3 °F 35.1 °F 74% 30.09 in 10.0 mi SSE 3.5 mph - N/A   Clear
3:54 AM 43.0 °F - 35.1 °F 74% 30.07 in 10.0 mi Calm Calm - N/A   Clear
4:54 AM 42.1 °F - 35.1 °F 76% 30.08 in 10.0 mi Calm Calm - N/A   Clear
5:54 AM 43.0 °F 40.3 °F 35.1 °F 74% 30.11 in 10.0 mi South 4.6 mph - N/A   Clear
6:54 AM 43.0 °F - 35.1 °F 74% 30.11 in 10.0 mi Calm Calm - N/A   Clear
7:54 AM 46.0 °F - 37.0 °F 71% 30.12 in 10.0 mi Calm Calm - N/A   Clear
8:54 AM 52.0 °F - 39.9 °F 63% 30.12 in 10.0 mi Calm Calm - N/A   Clear
9:54 AM 62.1 °F - 37.0 °F 39% 30.09 in 10.0 mi Calm Calm - N/A   Clear
10:54 AM 66.0 °F - 37.0 °F 34% 30.08 in 10.0 mi Calm Calm - N/A   Clear
11:54 AM 70.0 °F - 37.0 °F 30% 30.03 in 10.0 mi West 4.6 mph - N/A   Clear
12:54 PM 72.0 °F - 35.1 °F 26% 29.99 in 10.0 mi Calm Calm - N/A   Clear
1:54 PM 73.0 °F - 34.0 °F 24% 29.97 in 10.0 mi North 5.8 mph - N/A   Clear
2:54 PM 72.0 °F - 33.1 °F 24% 29.97 in 10.0 mi Calm Calm - N/A   Clear
3:54 PM 73.0 °F - 33.1 °F 23% 29.97 in 10.0 mi Calm Calm - N/A   Clear
4:54 PM 70.0 °F - 34.0 °F 27% 29.98 in 10.0 mi Calm Calm - N/A   Clear
5:54 PM 64.9 °F - 37.0 °F 36% 30.00 in 10.0 mi ENE 3.5 mph - N/A   Clear
6:54 PM 62.1 °F - 37.0 °F 39% 30.01 in 10.0 mi ENE 4.6 mph - N/A   Clear
7:54 PM 60.1 °F - 37.0 °F 42% 30.01 in 10.0 mi ENE 4.6 mph - N/A   Clear
8:54 PM 60.1 °F - 37.0 °F 42% 30.01 in 10.0 mi Calm Calm - N/A   Clear
9:54 PM 57.0 °F - 37.9 °F 49% 29.99 in 10.0 mi ENE 4.6 mph - N/A   Clear
10:54 PM 57.0 °F - 37.9 °F 49% 29.98 in 10.0 mi East 3.5 mph - N/A   Clear
11:54 PM 55.9 °F - 39.0 °F 53% 29.97 in 10.0 mi Calm Calm - N/A   Clear